Location: F?ge?el
(45.8833°N, 22.5833°E)
Time: 00:36:12
(UTC+00:00)

Cosmos 2058 - Pass Details

Date: 17 November 2025
Orbit: 529 x 540 km, 82.5° (Epoch: 11 December)

Event Time Altitude Azimuth Distance (km) Brightness Sun altitude
Rises 16:00:50 0° 358° (N) 2,706 6.2 -11.3°
Reaches altitude 10° 16:03:07 10° 7° (N) 1,811 5.2 -11.7°
Maximum altitude 16:06:49 36° 75° (ENE) 872 3.3 -12.3°
Drops below altitude 10° 16:10:30 10° 143° (SE) 1,803 5.2 -12.9°
Sets 16:12:46 0° 152° (SSE) 2,691 6.2 -13.3°
